Torna al catalogo

STARLINK-4471

AttivoComunicazioniSSO
NORAD 53664·PAYLOAD·🇺🇸 United States

Lanciato Aug 31, 2022 da Vandenberg Space Force Base

Loading…

Prossimi Passaggi (prossime 24 ore)

TLE

AggiornatoSource: CelesTrak SupGP

Epoca: Sep 14, 2026, 20:47 UTC

1 53664C 22105S   26257.86645833 -.00040165  00000+0 -12479-2 0  2578
2 53664  97.2834 134.7138 0001676  89.9637  61.4095 15.33430868    15

Traccia STARLINK-4471 in tempo reale con AllMySat

Download on the App Store